TimeEDT,TemperatureF,Dew PointF,Humidity,Sea Level PressureIn,VisibilityMPH,Wind Direction,Wind SpeedMPH,Gust SpeedMPH,PrecipitationIn,Events,Conditions,WindDirDegrees,DateUTC
12:00 AM,44.6,32.0,61,30.19,15.0,East,8.1,-,N/A,,Clear,100,2013-04-29 04:00:00
1:00 AM,42.8,32.0,66,30.19,15.0,East,10.4,-,N/A,,Clear,100,2013-04-29 05:00:00
2:00 AM,43,30,49,30.19,15,ESE,4.6,,,,,110,2013-04-29 06:00:00
2:00 AM,42.8,30.2,61,30.19,15.0,ESE,3.5,-,N/A,,Clear,110,2013-04-29 06:00:00
3:00 AM,37.4,28.4,70,30.19,15.0,ESE,3.5,-,N/A,,Clear,120,2013-04-29 07:00:00
4:00 AM,39.2,28.4,65,30.19,15.0,SE,5.8,-,N/A,,Partly Cloudy,130,2013-04-29 08:00:00
5:00 AM,39.2,30.2,70,30.19,15.0,East,3.5,-,N/A,,Scattered Clouds,100,2013-04-29 09:00:00
6:00 AM,37.4,30.2,75,30.19,25.0,SE,2.3,-,N/A,,Mostly Cloudy,130,2013-04-29 10:00:00
7:00 AM,39.2,32.0,75,30.20,25.0,East,8.1,-,N/A,,Scattered Clouds,90,2013-04-29 11:00:00
8:00 AM,45,33,52,30.20,25,East,9.2,,,,Clear,90,2013-04-29 12:00:00
8:00 AM,44.6,33.8,66,30.20,25.0,East,10.4,-,N/A,,Mostly Cloudy,90,2013-04-29 12:00:00
9:00 AM,50.0,32.0,50,30.18,25.0,East,15.0,-,N/A,,Mostly Cloudy,100,2013-04-29 13:00:00
10:00 AM,55.4,32.0,41,30.16,25.0,East,18.4,-,N/A,,Mostly Cloudy,100,2013-04-29 14:00:00
11:00 AM,59.0,33.8,39,30.14,25.0,East,18.4,-,N/A,,Mostly Cloudy,100,2013-04-29 15:00:00
12:00 PM,64.4,35.6,34,30.12,25.0,East,16.1,-,N/A,,Mostly Cloudy,90,2013-04-29 16:00:00
1:00 PM,66.2,35.6,32,30.11,25.0,East,13.8,-,N/A,,Mostly Cloudy,100,2013-04-29 17:00:00
2:00 PM,69,35,17,30.09,25,East,10.4,,,,Partly Cloudy,100,2013-04-29 18:00:00
2:00 PM,68.0,33.8,28,30.09,25.0,East,11.5,-,N/A,,Mostly Cloudy,100,2013-04-29 18:00:00
3:00 PM,68.0,33.8,28,30.09,25.0,East,5.8,-,N/A,,Mostly Cloudy,100,2013-04-29 19:00:00
4:00 PM,73.4,30.2,20,30.07,25.0,South,10.4,-,N/A,,Mostly Cloudy,180,2013-04-29 20:00:00
5:00 PM,73.4,32.0,22,30.07,25.0,South,16.1,-,N/A,,Mostly Cloudy,190,2013-04-29 21:00:00
6:00 PM,71.6,32.0,23,30.08,25.0,South,15.0,-,N/A,,Mostly Cloudy,190,2013-04-29 22:00:00
7:00 PM,68.0,32.0,26,30.11,25.0,South,10.4,-,N/A,,Scattered Clouds,170,2013-04-29 23:00:00
8:00 PM,60,40,36,30.13,25,East,10.4,,,,Partly Cloudy,100,2013-04-30 00:00:00
8:00 PM,60.8,41.0,48,30.13,25.0,East,10.4,-,N/A,,Mostly Cloudy,100,2013-04-30 00:00:00
9:00 PM,57.2,33.8,41,30.15,15.0,East,12.7,-,N/A,,Scattered Clouds,100,2013-04-30 01:00:00
10:00 PM,53.6,32.0,44,30.16,15.0,ESE,9.2,-,N/A,,Partly Cloudy,110,2013-04-30 02:00:00
11:00 PM,53.6,33.8,47,30.17,15.0,ESE,10.4,-,N/A,,Mostly Cloudy,110,2013-04-30 03:00:00